FW3961 Weather Reports


Display with metric or nautical units.
time (UTC)temp
F
wind
direction
speed
MPH
gust
MPH
rain 1hr
in
rain 24hr
in
rain mn
in
humidity
%
barometer
mb
20260905060850 55 134 1.0 2.0 0.00 0.28 0.27 94 1016.8
20260905060334 55 134 1.0 2.0 0.00 0.28 0.27 94 1016.9
20260905055827 55 134 1.0 2.0 0.00 0.28 0.27 94 1016.9
20260905055326 55 134 1.0 2.0 0.00 0.28 0.27 94 1016.8
20260905055322 55 134 1.0 2.0 0.00 0.28 0.27 94 1016.8
20260905054310 55 134 1.0 2.0 0.00 0.28 0.27 94 1016.8
20260905053804 55 134 1.0 2.0 0.00 0.28 0.27 94 1016.9
20260905053258 55 134 1.0 3.0 0.00 0.28 0.27 94 1016.7
20260905052752 55 134 1.0 3.0 0.00 0.28 0.27 94 1016.6
20260905052245 55 144 2.0 3.0 0.00 0.28 0.27 94 1016.6
20260905051740 55 144 2.0 3.0 0.00 0.28 0.27 94 1016.6
20260905051238 55 144 2.0 3.0 0.00 0.28 0.27 94 1016.6
20260905051234 55 144 2.0 3.0 0.00 0.28 0.27 94 1016.6
20260905050224 55 144 2.0 3.0 0.00 0.28 0.27 94 1016.5
20260905045715 55 144 2.0 3.0 0.00 0.28 0.27 94 1016.6
20260905045210 55 144 2.0 3.0 0.00 0.28 0.27 94 1016.5
20260905044704 55 144 1.0 2.0 0.00 0.28 0.27 94 1016.5
20260905044158 55 144 1.0 2.0 0.00 0.28 0.27 94 1016.5
20260905043655 55 144 1.0 2.0 0.00 0.28 0.27 94 1016.5
20260905043652 55 144 1.0 2.0 0.00 0.28 0.27 94 1016.5
20260905042640 55 144 1.0 2.0 0.00 0.28 0.27 94 1016.4
20260905042138 55 144 1.0 2.0 0.01 0.28 0.27 93 1016.3
20260905042134 55 144 1.0 2.0 0.01 0.28 0.27 93 1016.4
20260905041121 55 144 1.0 2.0 0.01 0.28 0.27 93 1016.2
20260905040615 55 144 1.0 2.0 0.01 0.28 0.27 93 1016.1
20260905040110 55 144 0.0 2.0 0.01 0.28 0.27 93 1016.1
20260905035604 55 144 0.0 1.0 0.01 0.28 0.27 93 1016.1
20260905035058 55 144 1.0 1.0 0.01 0.28 0.27 93 1016.1
20260905034552 55 144 1.0 2.0 0.01 0.28 0.27 93 1016.0
20260905034046 55 144 1.0 2.0 0.01 0.28 0.27 93 1015.9
20260905033540 55 144 1.0 2.0 0.01 0.28 0.27 93 1015.8
20260905033034 55 144 1.0 3.0 0.01 0.28 0.27 93 1015.7
20260905032528 55 144 2.0 3.0 0.02 0.28 0.27 93 1015.6
20260905032023 56 144 2.0 3.0 0.01 0.27 0.26 93 1015.6
20260905031516 56 144 2.0 3.0 0.01 0.27 0.26 93 1015.6
20260905031010 56 144 2.0 3.0 0.02 0.27 0.26 93 1015.6
20260905030504 56 144 1.0 3.0 0.02 0.28 0.26 92 1015.5
20260905025957 56 144 1.0 2.0 0.03 0.28 0.26 92 1015.5
20260905025452 56 144 1.0 2.0 0.03 0.28 0.26 92 1015.4
20260905024945 56 144 1.0 2.0 0.03 0.28 0.26 92 1015.5
20260905024442 56 144 1.0 2.0 0.03 0.28 0.26 92 1015.4
20260905023942 56 144 1.0 2.0 0.03 0.28 0.26 92 1015.4
20260905023442 56 144 1.0 2.0 0.04 0.28 0.26 92 1015.4
20260905022946 56 144 1.0 3.0 0.04 0.28 0.25 91 1015.6
20260905022941 56 144 1.0 2.0 0.05 0.28 0.26 91 1015.6
20260905021940 56 144 2.0 3.0 0.05 0.29 0.25 91 1015.6
20260905021441 56 148 2.0 3.0 0.05 0.30 0.25 91 1015.6
20260905021320 56 148 2.0 5.0 0.04 0.30 0.24 90 1015.6
20260905021211 56 148 2.0 5.0 0.04 0.30 0.24 90 1015.6
20260905015938 56 119 2.0 4.0 0.03 0.29 0.23 90 1015.6
20260905015440 57 117 2.0 4.0 0.03 0.29 0.23 90 1015.6
20260905014940 57 124 2.0 4.0 0.03 0.29 0.23 89 1015.6
20260905014435 57 132 3.0 6.0 0.03 0.29 0.23 89 1015.5
20260905013938 57 130 3.0 6.0 0.03 0.29 0.23 88 1015.5
20260905013436 58 134 3.0 4.0 0.02 0.28 0.22 88 1015.6
20260905012933 58 135 3.0 5.0 0.01 0.27 0.21 87 1015.5
20260905012429 59 133 3.0 5.0 0.01 0.28 0.21 86 1015.5
20260905011930 59 125 3.0 5.0 0.00 0.27 0.20 84 1015.5
20260905011429 60 134 3.0 4.0 0.00 0.27 0.20 83 1015.4
20260905010930 61 120 3.0 5.0 0.00 0.27 0.20 82 1015.5
20260905010430 61 128 3.0 5.0 0.00 0.27 0.20 81 1015.3
20260905005931 62 142 3.0 5.0 0.00 0.28 0.20 79 1015.3
20260905005429 62 128 3.0 7.0 0.00 0.29 0.20 77 1015.2
20260905004931 62 128 3.0 7.0 0.00 0.29 0.20 77 1015.2
20260905004429 62 164 3.0 8.0 0.00 0.30 0.20 78 1015.2
20260905003930 62 127 3.0 8.0 0.00 0.31 0.20 77 1015.2
20260905003429 63 153 2.0 6.0 0.00 0.31 0.20 78 1015.1
20260905002930 63 125 2.0 5.0 0.00 0.31 0.20 77 1015.0
20260905002429 63 112 1.0 5.0 0.00 0.32 0.20 77 1014.8
20260905001930 63 225 1.0 5.0 0.00 0.34 0.20 78 1014.8
20260905001429 63 158 2.0 5.0 0.00 0.34 0.20 76 1014.9
20260905001203 63 129 1.0 5.0 0.00 0.34 0.20 76 1014.8
20260905000434 64 137 1.0 4.0 0.00 0.35 0.20 74 1014.8
20260905000432 63 130 1.0 5.0 0.00 0.35 0.20 75 1014.9
20260904235420 64 201 2.0 7.0 0.00 0.36 0.20 76 1014.8
20260904234922 64 186 2.0 8.0 0.00 0.36 0.20 73 1014.7
20260904234421 64 138 2.0 8.0 0.00 0.36 0.20 72 1014.7
20260904234300 65 192 1.0 5.0 0.00 0.36 0.20 75 1014.6
20260904234152 64 184 2.0 4.0 0.00 0.36 0.20 73 1014.7
20260904232921 65 196 1.0 5.0 0.00 0.36 0.20 74 1014.5
20260904232420 65 117 1.0 4.0 0.00 0.36 0.20 74 1014.4
20260904231928 64 190 1.0 6.0 0.00 0.36 0.20 77 1014.4
20260904231924 65 267 1.0 6.0 0.00 0.36 0.20 74 1014.4
20260904230919 64 133 1.0 5.0 0.00 0.36 0.20 77 1014.4
20260904230419 64 123 2.0 7.0 0.00 0.36 0.20 74 1014.4
20260904225926 65 112 2.0 4.0 0.00 0.37 0.20 78 1014.4
20260904225917 65 82 2.0 7.0 0.00 0.36 0.20 74 1014.3
20260904225417 65 130 1.0 5.0 0.00 0.36 0.20 77 1014.4
20260904224415 64 100 2.0 6.0 0.00 0.38 0.20 78 1014.3
20260904223915 64 154 1.0 6.0 0.00 0.40 0.20 79 1014.4
20260904223415 64 128 0.0 3.0 0.00 0.41 0.20 82 1014.4
20260904222918 63 128 2.0 4.0 0.00 0.41 0.20 83 1014.4
20260904222913 63 128 1.0 3.0 0.00 0.41 0.20 82 1014.4
20260904221911 62 128 2.0 5.0 0.01 0.41 0.20 83 1014.3
20260904221407 62 131 1.0 5.0 0.01 0.41 0.20 84 1014.3
20260904221233 61 123 1.0 5.0 0.02 0.41 0.20 85 1014.5
20260904221125 61 146 1.0 5.0 0.02 0.41 0.20 85 1014.5
20260904215848 61 224 0.0 2.0 0.03 0.42 0.20 88 1014.4
20260904215340 61 229 0.0 2.0 0.03 0.42 0.20 89 1014.3
20260904214840 60 232 0.0 2.0 0.03 0.42 0.20 89 1014.3
20260904214836 60 232 0.0 1.0 0.03 0.42 0.20 89 1014.3
20260904213823 59 232 0.0 2.0 0.03 0.43 0.20 89 1014.3
20260904213317 60 229 0.0 2.0 0.03 0.43 0.20 88 1014.2
20260904212811 60 231 0.0 2.0 0.03 0.44 0.20 88 1014.3
20260904212644 59 234 1.0 4.0 0.02 0.43 0.19 88 1014.4
20260904212535 59 234 0.0 3.0 0.03 0.44 0.20 88 1014.4
20260904211253 59 231 1.0 4.0 0.02 0.43 0.19 87 1014.4
20260904210750 60 223 2.0 4.0 0.00 0.41 0.18 85 1014.2
20260904210746 60 259 1.0 4.0 0.01 0.42 0.18 86 1014.3
20260904205738 61 279 2.0 7.0 0.00 0.41 0.17 82 1014.2
20260904205730 62 267 2.0 7.0 0.00 0.41 0.17 80 1014.2
20260904204723 63 246 1.0 7.0 0.00 0.41 0.17 77 1014.1
20260904204216 63 168 2.0 5.0 0.00 0.41 0.17 77 1014.0
20260904203719 63 125 3.0 7.0 0.00 0.41 0.17 78 1013.8
20260904203715 63 286 2.0 5.0 0.00 0.41 0.17 76 1013.9
20260904202714 63 136 3.0 7.0 0.00 0.41 0.17 76 1013.7
20260904202215 63 142 1.0 7.0 0.00 0.41 0.17 77 1013.7
20260904201715 63 133 2.0 7.0 0.00 0.41 0.17 80 1013.7
20260904201554 63 213 1.0 6.0 0.00 0.41 0.17 80 1013.7
20260904201446 63 102 2.0 7.0 0.00 0.41 0.17 78 1013.7
20260904200216 62 121 1.0 3.0 0.00 0.41 0.17 81 1013.8
20260904200212 62 161 1.0 6.0 0.00 0.41 0.17 79 1013.8
20260904195211 62 119 2.0 3.0 0.00 0.41 0.17 82 1013.9
20260904194711 61 102 2.0 3.0 0.00 0.41 0.17 82 1013.9
20260904194211 61 101 1.0 4.0 0.00 0.41 0.17 83 1014.0
20260904193711 60 159 1.0 4.0 0.00 0.41 0.17 84 1013.9
20260904193211 61 159 1.0 2.0 0.01 0.41 0.17 85 1014.0
20260904192710 60 160 1.0 2.0 0.01 0.41 0.17 86 1014.1
20260904192211 60 161 1.0 2.0 0.01 0.42 0.17 87 1014.0
20260904191711 60 163 1.0 2.0 0.01 0.42 0.17 88 1014.1
20260904191205 60 163 1.0 2.0 0.01 0.42 0.17 89 1014.1
20260904190701 60 163 1.0 4.0 0.01 0.42 0.17 89 1014.1
20260904190153 60 163 0.0 2.0 0.01 0.42 0.17 90 1014.1
20260904185646 59 164 0.0 1.0 0.01 0.42 0.17 89 1014.1
20260904185140 59 164 0.0 1.0 0.01 0.42 0.17 88 1014.1
20260904184635 59 164 0.0 2.0 0.01 0.42 0.17 88 1014.1
20260904184128 59 164 1.0 3.0 0.01 0.42 0.17 87 1014.1
20260904184124 60 164 1.0 3.0 0.01 0.42 0.17 86 1014.1
20260904183116 60 153 0.0 2.0 0.00 0.41 0.16 88 1014.0
20260904182611 60 138 0.0 0.0 0.00 0.41 0.16 88 1013.9
20260904182105 60 138 0.0 0.0 0.00 0.41 0.16 88 1013.8
20260904181559 60 138 0.0 0.0 0.00 0.41 0.16 90 1013.8
20260904181055 60 138 0.0 0.0 0.00 0.41 0.16 91 1013.7
20260904180555 59 138 0.0 0.0 0.00 0.41 0.16 91 1013.7
20260904180054 59 138 0.0 0.0 0.00 0.41 0.16 92 1013.7
20260904175555 59 138 0.0 0.0 0.00 0.42 0.16 92 1013.6
20260904175055 59 138 0.0 0.0 0.00 0.42 0.16 92 1013.7
20260904174555 58 138 0.0 0.0 0.00 0.42 0.16 92 1013.6
20260904174055 58 138 0.0 0.0 0.00 0.42 0.16 92 1013.5
20260904173554 58 138 0.0 0.0 0.00 0.42 0.16 92 1013.4
20260904173055 58 138 0.0 0.0 0.00 0.42 0.16 92 1013.4
20260904172555 58 137 0.0 0.0 0.00 0.42 0.16 93 1013.4
20260904172051 58 134 0.0 0.0 0.00 0.42 0.16 93 1013.3
20260904171550 58 134 0.0 2.0 0.00 0.43 0.16 93 1013.2
20260904171051 58 134 0.0 2.0 0.00 0.43 0.16 93 1013.1
20260904170550 57 134 0.0 1.0 0.00 0.44 0.16 93 1013.1
20260904170051 57 134 0.0 1.0 0.00 0.44 0.16 94 1013.1
20260904165553 57 134 0.0 1.0 0.00 0.44 0.16 94 1013.1
20260904165050 57 134 0.0 1.0 0.00 0.44 0.16 94 1013.1
20260904164551 57 133 0.0 1.0 0.00 0.44 0.16 94 1013.0
20260904164051 56 133 0.0 0.0 0.00 0.44 0.16 94 1013.0
20260904163558 56 133 0.0 1.0 0.00 0.44 0.16 94 1012.8
20260904163546 56 133 0.0 1.0 0.00 0.44 0.16 94 1012.8
20260904163044 56 133 0.0 1.0 0.00 0.44 0.16 94 1012.8
20260904162040 56 133 0.0 1.0 0.00 0.44 0.16 95 1013.0
20260904161538 56 133 0.0 1.0 0.00 0.44 0.16 95 1012.8
20260904161038 56 133 0.0 1.0 0.00 0.44 0.16 95 1012.8
20260904160541 55 133 0.0 1.0 0.00 0.44 0.16 94 1012.8
20260904160537 55 133 0.0 2.0 0.00 0.44 0.16 95 1013.0
20260904155536 55 132 0.0 2.0 0.00 0.44 0.16 95 1013.0
20260904155036 55 133 0.0 1.0 0.00 0.44 0.16 95 1013.0
20260904154534 55 133 0.0 1.0 0.00 0.44 0.16 95 1013.0
20260904154032 55 132 0.0 1.0 0.00 0.44 0.16 95 1012.8
20260904153804 55 133 0.0 1.0 0.00 0.44 0.16 95 1012.8
20260904153042 54 128 0.0 2.0 0.00 0.44 0.16 94 1012.8
20260904153038 54 128 0.0 2.0 0.00 0.44 0.16 95 1012.8
20260904152030 54 128 0.0 1.0 0.00 0.44 0.16 94 1012.7
20260904151530 54 128 0.0 1.0 0.00 0.44 0.16 95 1012.7
20260904151356 54 128 0.0 1.0 0.00 0.44 0.16 95 1012.7
20260904151250 54 128 0.0 1.0 0.01 0.44 0.16 95 1012.7
20260904150012 54 128 0.0 1.0 0.01 0.44 0.16 95 1012.6
20260904145507 54 128 0.0 2.0 0.01 0.44 0.16 95 1012.5
20260904144959 54 128 0.0 2.0 0.01 0.44 0.16 95 1012.5
20260904144456 54 129 0.0 1.0 0.01 0.45 0.16 95 1012.4
20260904143947 54 129 0.0 1.0 0.01 0.45 0.16 94 1012.4
20260904143443 53 129 0.0 2.0 0.01 0.46 0.16 94 1012.4
20260904142936 53 129 0.0 2.0 0.01 0.46 0.16 94 1012.4
20260904142430 53 129 0.0 0.0 0.01 0.46 0.16 94 1012.3
20260904141924 53 129 0.0 0.0 0.01 0.46 0.16 94 1012.3
20260904141920 53 129 0.0 1.0 0.01 0.46 0.16 94 1012.1
20260904140912 53 129 0.0 1.0 0.00 0.46 0.15 94 1012.1
20260904140907 53 130 0.0 0.0 0.00 0.47 0.15 94 1012.0
20260904135900 53 130 0.0 0.0 0.00 0.48 0.15 94 1012.0
20260904135354 53 130 0.0 0.0 0.00 0.48 0.15 94 1011.9
20260904134848 53 130 0.0 0.0 0.00 0.49 0.15 94 1011.8
20260904134344 53 130 0.0 0.0 0.00 0.49 0.15 94 1011.7
20260904133836 53 130 0.0 0.0 0.00 0.49 0.15 94 1011.6
20260904133330 53 130 0.0 0.0 0.00 0.49 0.15 94 1011.6
20260904133326 53 130 0.0 0.0 0.00 0.50 0.15 94 1011.6
20260904132318 53 130 0.0 0.0 0.00 0.50 0.15 94 1011.5
20260904131814 53 130 0.0 0.0 0.00 0.50 0.15 94 1011.4
20260904131810 53 130 0.0 0.0 0.00 0.50 0.15 94 1011.4
20260904130800 53 130 0.0 0.0 0.00 0.50 0.15 94 1011.3
20260904130256 53 130 0.0 0.0 0.00 0.50 0.15 94 1011.3
20260904130252 53 130 0.0 0.0 0.00 0.50 0.15 94 1011.3
20260904125242 53 130 0.0 0.0 0.00 0.50 0.15 95 1011.2
20260904124736 53 130 0.0 1.0 0.00 0.50 0.15 95 1011.3
20260904124229 53 130 1.0 2.0 0.00 0.50 0.15 95 1011.3
20260904123724 53 130 1.0 2.0 0.00 0.50 0.15 95 1011.3
20260904123219 53 130 1.0 2.0 0.00 0.50 0.15 95 1011.2
20260904122712 53 130 1.0 2.0 0.00 0.50 0.15 95 1011.2
20260904122205 53 130 0.0 2.0 0.00 0.50 0.15 95 1011.2
20260904121659 53 130 0.0 1.0 0.00 0.50 0.15 95 1011.1
20260904121153 53 130 0.0 2.0 0.00 0.50 0.15 94 1011.2
20260904120647 53 130 1.0 2.0 0.00 0.50 0.15 94 1011.1
20260904120142 53 130 1.0 2.0 0.00 0.50 0.15 94 1011.0
20260904115743 53 130 0.0 2.0 0.00 0.50 0.15 95 1011.0
20260904115726 53 130 1.0 2.0 0.00 0.50 0.15 95 1010.9
20260904115636 53 130 1.0 2.0 0.00 0.50 0.15 95 1011.0
20260904115627 53 130 1.0 2.0 0.00 0.50 0.15 95 1011.0
20260904113611 53 130 1.0 2.0 0.00 0.50 0.15 94 1010.7
20260904113106 53 130 1.0 2.0 0.00 0.50 0.15 94 1010.8
20260904112601 53 130 1.0 2.0 0.00 0.50 0.15 94 1010.7
20260904112053 53 130 1.0 3.0 0.01 0.50 0.15 94 1010.7
20260904111555 53 130 0.0 3.0 0.01 0.51 0.15 94 1010.7
20260904111051 53 130 0.0 0.0 0.01 0.51 0.15 94 1010.7
20260904110552 53 130 0.0 0.0 0.01 0.51 0.15 94 1010.6
20260904110052 53 129 0.0 0.0 0.02 0.52 0.15 94 1010.6
20260904105551 53 129 0.0 0.0 0.03 0.52 0.15 94 1010.6
20260904105055 53 129 0.0 0.0 0.03 0.52 0.15 94 1010.6
20260904104551 53 129 0.0 2.0 0.04 0.52 0.15 94 1010.7
20260904104050 53 129 1.0 2.0 0.04 0.52 0.15 94 1010.5
20260904103549 53 129 0.0 2.0 0.06 0.52 0.15 94 1010.5
20260904103050 53 129 0.0 2.0 0.06 0.52 0.15 94 1010.6
20260904102550 53 129 0.0 2.0 0.07 0.52 0.15 94 1010.4
20260904102052 53 129 1.0 2.0 0.06 0.51 0.14 94 1010.4
20260904101547 53 129 1.0 2.0 0.06 0.51 0.14 94 1010.5
20260904101045 53 129 1.0 3.0 0.06 0.51 0.14 94 1010.5
20260904100550 53 130 1.0 2.0 0.05 0.50 0.13 94 1010.5
20260904100545 53 129 1.0 3.0 0.06 0.51 0.14 94 1010.4
20260904095545 53 129 1.0 2.0 0.05 0.49 0.13 94 1010.6
20260904095045 53 132 1.0 3.0 0.05 0.49 0.12 94 1010.6
20260904094545 53 132 2.0 3.0 0.04 0.48 0.12 94 1010.7
20260904094046 53 132 1.0 3.0 0.05 0.48 0.11 94 1010.7
20260904093546 53 132 2.0 3.0 0.03 0.46 0.10 94 1010.6
20260904093043 53 132 2.0 3.0 0.03 0.46 0.09 94 1010.6
20260904092541 53 132 3.0 5.0 0.03 0.45 0.08 94 1010.5
20260904092046 53 130 2.0 3.0 0.04 0.45 0.08 94 1010.7
20260904092041 53 132 3.0 5.0 0.03 0.45 0.08 94 1010.6
20260904091041 53 130 2.0 3.0 0.04 0.45 0.08 94 1010.7
20260904090545 53 128 2.0 3.0 0.05 0.45 0.08 94 1010.7
20260904090042 53 128 2.0 3.0 0.06 0.45 0.08 93 1010.8
20260904085543 53 128 1.0 2.0 0.06 0.44 0.07 93 1010.9
20260904085043 53 128 1.0 2.0 0.06 0.44 0.07 93 1010.8
20260904085038 53 128 1.0 2.0 0.07 0.44 0.07 93 1010.9
20260904084031 53 128 1.0 2.0 0.06 0.43 0.06 93 1010.7
20260904083523 53 128 1.0 2.0 0.06 0.43 0.06 93 1010.7
20260904083018 53 128 1.0 2.0 0.05 0.42 0.05 93 1010.7
20260904082514 53 128 1.0 2.0 0.05 0.42 0.05 93 1010.6
20260904082007 53 128 1.0 2.0 0.05 0.42 0.05 93 1010.6
20260904081831 53 128 0.0 2.0 0.04 0.41 0.04 92 1010.6
20260904081726 53 128 0.0 2.0 0.03 0.40 0.04 92 1010.7
20260904080448 54 128 1.0 2.0 0.02 0.39 0.02 92 1010.7
20260904075942 54 128 1.0 1.0 0.02 0.39 0.02 92 1010.8
20260904075436 54 128 1.0 3.0 0.02 0.38 0.01 92 1010.7
20260904074932 54 128 1.0 3.0 0.01 0.37 0.00 92 1010.9
20260904074927 54 128 1.0 2.0 0.01 0.37 0.00 92 1010.8
20260904073919 54 128 1.0 2.0 0.01 0.37 0.00 92 1010.9
20260904073913 54 128 0.0 2.0 0.01 0.37 0.00 91 1010.7
20260904072906 54 128 0.0 2.0 0.01 0.37 0.00 91 1010.7
20260904072400 54 128 1.0 2.0 0.01 0.37 0.00 91 1010.7
20260904071854 54 128 1.0 2.0 0.01 0.37 0.00 91 1010.7
20260904071349 54 128 0.0 0.0 0.01 0.37 0.00 91 1010.7
20260904070842 54 128 0.0 0.0 0.01 0.37 0.00 91 1010.5
20260904070336 54 128 0.0 1.0 0.01 0.37 0.00 90 1010.5
20260904065832 54 128 1.0 3.0 0.00 0.36 0.37 90 1010.5
20260904065326 54 128 2.0 4.0 0.00 0.36 0.36 90 1010.5
20260904064819 54 128 2.0 4.0 0.00 0.36 0.36 90 1010.5
20260904064313 54 127 2.0 4.0 0.00 0.36 0.36 90 1010.5
20260904063807 54 128 2.0 3.0 0.00 0.36 0.36 91 1010.5
20260904063301 54 128 2.0 3.0 0.00 0.36 0.36 91 1010.5
20260904062755 54 128 2.0 3.0 0.00 0.36 0.36 91 1010.5
20260904062249 54 127 1.0 3.0 0.00 0.36 0.36 91 1010.4
20260904061743 54 128 1.0 3.0 0.00 0.36 0.36 92 1010.4
20260904061237 54 127 2.0 3.0 0.00 0.36 0.36 92 1010.5